Weather History for KMTJ - March, 2013

Change the Weather History Date:

Saturday, March 16, 2013

  Actual Average Record
Temperature  
Mean Temperature 44 °F 41 °F  
Max Temperature 54 °F 55 °F - ()
Min Temperature 33 °F 28 °F - ()
Degree Days  
Heating Degree Days 21 24  
Month to date heating degree days 366 415  
Since 1 July heating degree days 5050 5130  
Cooling Degree Days 0 0  
Month to date cooling degree days 0 0  
Year to date cooling degree days 0 0  
Moisture  
Dew Point 34 °F    
Average Humidity 68    
Maximum Humidity 89    
Minimum Humidity 46    
Precipitation  
Precipitation 0.06 in 0.03 in - ()
Month to date precipitation 0.36 0.51  
Year to date precipitation 1.17 1.74  
Snow  
Snow 0.00 in - - ()
Snow Depth 0.00 in    
Sea Level Pressure  
Sea Level Pressure 29.87 in    
Wind  
Wind Speed 9 mph (ESE)    
Max Wind Speed 29 mph    
Max Gust Speed 33 mph    
Visibility 10 miles    
Events Rain , Thunderstorm    
T = Trace of Precipitation, MM = Missing Value Source: NWS Daily Summary

Daily Weather History Graph

Daily Weather History Graph

Search for Another Location

Airport or City:

Trip Planner

Search our weather history database for the weather conditions in past years. The results will help you decide how hot, cold, wet, or windy it might be!

Date:

Astronomy

Mar. 16, 2013 Rise Set
Actual Time 7:20 AM MDT 7:19 PM MDT
Civil Twilight 6:54 AM MDT 7:46 PM MDT
Nautical Twilight 6:23 AM MDT 8:17 PM MDT
Astronomical Twilight 5:52 AM MDT 8:48 PM MDT
Moon 9:56 AM MDT (3/16) No Moon Set
Length of Visible Light 12h 52m
Length of Day
11h 59m
Waxing Crescent, 23% of the Moon is Illuminated
Mar 16
Waxing Crescent
Mar 19
First Quarter
Mar 27
Full
Apr 2
Last Quarter
Apr 10
New

Hourly Weather History & Observations

Time (MDT) Temp. Windchill Dew Point Humidity Pressure Visibility Wind Dir Wind Speed Gust Speed Precip Events Conditions
12:53 AM 48.0 °F - 28.0 °F 46% 29.86 in 10.0 mi SE 10.4 mph - N/A   Clear
1:53 AM 45.0 °F 40.6 °F 28.0 °F 52% 29.85 in 10.0 mi ESE 8.1 mph - N/A   Mostly Cloudy
2:53 AM 44.1 °F - 28.0 °F 53% 29.85 in 10.0 mi Calm Calm - N/A   Scattered Clouds
3:53 AM 43.0 °F 40.3 °F 28.9 °F 58% 29.85 in 10.0 mi East 4.6 mph - N/A   Overcast
4:53 AM 39.9 °F 35.1 °F 28.9 °F 65% 29.84 in 10.0 mi ESE 6.9 mph - N/A   Clear
5:53 AM 39.9 °F 33.9 °F 28.9 °F 65% 29.83 in 10.0 mi SE 9.2 mph - N/A   Overcast
6:53 AM 41.0 °F 37.1 °F 28.9 °F 62% 29.85 in 10.0 mi ESE 5.8 mph - N/A   Partly Cloudy
7:53 AM 43.0 °F - 28.9 °F 58% 29.88 in 10.0 mi Calm Calm - N/A   Overcast
8:53 AM 45.0 °F 42.6 °F 30.0 °F 56% 29.91 in 10.0 mi South 4.6 mph - N/A   Overcast
9:53 AM 45.0 °F 41.8 °F 34.0 °F 65% 29.95 in 10.0 mi North 5.8 mph - N/A   Overcast
10:53 AM 44.1 °F 38.6 °F 39.0 °F 82% 29.98 in 5.0 mi SSE 10.4 mph - 0.05 in Rain Light Rain
11:00 AM 44.6 °F 37.2 °F 39.2 °F 81% 30.05 in 5.0 mi SSE 17.3 mph - 0.00 in Rain Light Rain
11:53 AM 45.0 °F 38.2 °F 39.9 °F 82% 29.93 in 10.0 mi ESE 15.0 mph 24.2 mph 0.01 in   Overcast
12:53 PM 46.9 °F - 39.0 °F 74% 29.91 in 10.0 mi SE 20.7 mph - N/A   Mostly Cloudy
1:53 PM 48.9 °F - 39.9 °F 71% 29.88 in 10.0 mi SSE 19.6 mph - N/A   Mostly Cloudy
2:53 PM 51.1 °F - 39.0 °F 63% 29.83 in 10.0 mi SSE 23.0 mph - N/A   Clear
3:53 PM 54.0 °F - 37.9 °F 55% 29.80 in 10.0 mi SE 25.3 mph - N/A   Clear
4:53 PM 53.1 °F - 36.0 °F 52% 29.81 in 10.0 mi NNE 15.0 mph 20.7 mph N/A   Overcast
4:59 PM 50.0 °F - 35.6 °F 58% 29.92 in 10.0 mi NNE 19.6 mph 26.5 mph N/A   Overcast
5:53 PM 52.0 °F - 36.0 °F 54% 29.80 in 10.0 mi East 12.7 mph - 0.00 in   Clear
6:53 PM 50.0 °F - 35.1 °F 57% 29.79 in 10.0 mi ESE 11.5 mph - N/A   Clear
7:32 PM 48.2 °F - 37.4 °F 66% 29.92 in 10.0 mi North 10.4 mph 28.8 mph N/A Thunderstorm Mostly Cloudy
7:53 PM 48.0 °F - 36.0 °F 63% 29.80 in 10.0 mi ENE 15.0 mph - N/A Thunderstorm Scattered Clouds
8:03 PM 48.2 °F - 35.6 °F 62% 29.91 in 10.0 mi ENE 10.4 mph - N/A   Partly Cloudy
8:53 PM 46.0 °F - 35.1 °F 66% 29.82 in 10.0 mi Calm Calm - N/A   Partly Cloudy
9:53 PM 42.1 °F 39.2 °F 35.1 °F 76% 29.84 in 10.0 mi SE 4.6 mph - N/A   Partly Cloudy
10:53 PM 37.9 °F - 32.0 °F 79% 29.85 in 10.0 mi Calm Calm - N/A   Clear
11:53 PM 35.1 °F 31.0 °F 32.0 °F 89% 29.84 in 10.0 mi South 4.6 mph - N/A   Clear